Location: Mohawk View
(42.7837°N, 73.7885°W)
Time: 02:08:37
(UTC+00:00)

Cosmos 1844 - Pass Details

Date: 17 June 2021
Orbit: 823 x 867 km, 70.9° (Epoch: 02 August)

Event Time Altitude Azimuth Distance (km) Brightness Sun altitude
Rises 02:25:21 0° 338° (NNW) 3,369 8.5 -15.3°
Reaches altitude 10° 02:27:50 10° 342° (NNW) 2,434 7.3 -15.5°
Maximum altitude 02:33:21 60° 62° (ENE) 943 3.9 -16.1°
Enters shadow 02:36:29 26° 134° (SE) 1,592 4.6 -16.4°
